Location: La Brionne
(46.1728°N, 1.7849°E)
Time: 04:32:52
(UTC+00:00)

M-CUBED/EXP-1 PRIME - Visible Passes

Search period start: 29 March 2023 00:00
Search period end: 08 April 2023 00:00
Orbit: 411 x 587 km, 101.7° (Epoch: 28 March)

Date Brightness Start Highest point End Pass type
(mag) Time Alt. Az. Time Alt. Az. Time Alt. Az.
30 Mar ? 01:38:42 10° N 01:38:52 11° N 01:38:52 11° N visible
31 Mar ? 01:18:23 10° N 01:18:44 12° N 01:18:44 12° N visible
01 Apr ? 00:58:13 10° NNE 00:58:32 12° N 00:58:32 12° N visible
02 Apr ? 00:38:08 10° NNE 00:38:16 11° NNE 00:38:16 11° NNE visible
03 Apr ? 01:52:01 10° N 01:52:35 13° NNW 01:52:35 13° NNW visible
04 Apr ? 01:31:25 10° N 01:32:12 15° N 01:32:12 15° N visible
05 Apr ? 01:10:57 10° N 01:11:44 15° N 01:11:44 15° N visible
06 Apr ? 00:50:36 10° NNE 00:51:13 14° NNE 00:51:13 14° NNE visible
06 Apr ? 02:25:43 10° NNW 02:25:51 10° NNW 02:25:51 10° NNW visible
07 Apr ? 00:30:23 10° NNE 00:30:39 12° NNE 00:30:39 12° NNE visible
07 Apr ? 02:04:21 10° NNW 02:05:16 14° NNW 02:05:16 14° NNW visible
